Wind_Speed
61 62 62 63 64 64 64 66 67 66 67 69 72 75 76 76 75 75 74 74 72 71 69 67 66 63 61 60 59 58 58 57 56 55 53 52 50 49
62 62 63 63 64 64 65 67 69 70 70 70 73 75 75 73 70 68 66 65 63 62 61 61 61 60 60 59 59 60 60 59 59 58 57 55 53 51
63 62 62 64 64 65 66 68 70 72 72 71 71 70 67 64 61 59 56 54 52 51 51 51 52 53 54 56 58 59 60 61 61 61 60 58 56 54
62 63 63 63 63 64 66 67 69 70 70 67 63 60 58 55 52 50 47 45 43 42 42 43 44 45 47 49 52 55 58 60 61 62 62 61 59 58
63 63 62 62 62 63 64 65 66 65 63 60 54 50 47 45 42 40 38 36 35 35 35 36 36 38 40 43 46 49 53 56 59 61 62 62 61 60
61 60 60 60 60 61 61 61 59 56 52 49 44 41 38 36 34 31 28 28 28 29 30 31 32 34 35 38 40 43 46 50 54 58 60 62 62 62
58 58 58 58 58 58 56 53 49 45 41 38 34 31 29 28 26 24 22 23 24 25 25 26 27 28 30 31 34 37 40 44 48 52 56 59 61 61
55 55 55 55 54 51 47 43 39 34 30 27 25 23 21 20 19 19 19 19 20 21 20 20 20 21 24 26 29 31 34 37 41 46 50 54 57 59
53 52 51 49 44 40 36 32 28 25 22 20 18 17 16 16 16 16 17 17 16 17 16 16 16 17 19 21 24 26 28 31 35 39 43 47 52 55
48 46 43 39 35 30 25 22 20 18 17 16 15 15 15 15 15 15 15 15 15 15 14 13 14 14 14 16 19 21 24 27 30 34 38 41 45 49
41 38 33 29 25 20 17 15 14 13 13 13 13 14 14 15 15 15 15 15 15 15 14 13 12 12 12 12 14 16 18 20 23 27 32 36 40 44
33 29 26 21 16 13 11 10 10 10 11 12 13 14 15 16 16 16 16 15 14 13 12 11 10 10 10 10 11 13 15 16 19 22 25 29 34 38
25 22 18 13 10 8 7 7 8 9 10 12 13 15 16 17 17 17 16 14 12 9 8 7 7 7 8 9 9 10 12 14 16 18 20 24 28 32
17 14 10 7 5 5 5 7 8 10 11 13 14 16 17 18 17 16 15 13 10 9 7 6 5 4 4 5 7 9 10 12 15 17 19 21 25 28
10 6 3 3 4 5 7 8 9 11 12 14 15 17 18 18 17 16 15 14 12 11 9 8 6 3 2 2 4 6 9 11 13 16 18 20 23 26
2 2 4 5 6 7 8 9 10 11 12 14 16 18 18 19 18 17 16 15 14 13 12 10 8 6 4 2 1 4 7 10 13 15 18 20 23 26
4 6 6 6 7 8 9 10 10 11 12 14 16 18 19 19 18 17 17 16 16 15 14 12 11 10 8 6 4 5 7 12 15 17 19 21 24 27
7 7 7 7 8 9 10 10 10 11 13 15 17 19 19 19 19 18 18 18 17 16 15 15 15 14 13 11 9 9 11 14 16 19 20 22 25 28
8 7 7 8 8 9 10 10 11 12 13 15 17 19 19 19 20 20 20 19 19 19 18 18 18 17 17 14 14 14 15 17 19 21 22 23 25 28
8 8 8 8 9 10 10 11 11 12 14 16 18 19 19 20 20 20 20 20 20 20 20 21 21 20 19 19 19 21 22 22 22 22 24 25 26 27
9 9 9 9 9 10 11 11 12 13 14 16 18 19 19 20 20 20 20 21 21 22 22 22 23 23 22 21 21 23 25 26 26 25 24 24 24 25
9 10 10 10 10 11 11 12 12 13 15 17 18 19 19 20 19 19 19 20 22 22 23 23 24 24 24 23 23 24 25 27 28 28 27 26 24 23
9 10 10 10 11 11 12 12 13 14 15 17 18 19 20 21 20 19 19 20 22 22 23 23 24 25 25 25 25 25 26 25 25 25 26 25 25 24
Wind_Direction
294 294 294 295 296 295 295 294 293 292 290 289 287 287 286 285 284 282 280 278 276 273 270 267 264 261 257 254 251 248 246 244 242 240 238 236 235 233
295 297 298 298 298 297 295 294 294 293 292 290 289 288 287 286 285 283 281 278 275 271 267 264 261 257 254 251 248 246 244 242 240 238 236 235 234 232
298 299 300 300 298 296 295 295 295 294 294 293 292 291 290 289 287 285 282 279 276 271 267 263 259 255 251 248 245 243 241 239 238 236 235 233 232 231
300 301 300 299 298 297 297 297 296 296 296 296 295 294 293 290 288 287 284 280 276 272 267 263 259 255 251 247 243 241 239 238 236 235 233 232 232 231
301 301 300 299 298 298 298 298 298 298 299 299 299 297 295 293 291 289 286 281 277 273 268 263 259 255 251 247 244 242 239 237 235 234 232 231 230 230
301 300 299 299 299 299 299 300 301 302 302 303 302 300 297 295 294 292 288 284 281 276 270 264 260 256 252 249 246 243 240 238 235 233 231 230 229 228
300 299 299 299 300 301 302 303 304 304 305 306 306 303 300 298 297 296 291 287 285 281 275 268 263 258 253 250 247 243 240 237 235 232 231 229 228 227
299 299 299 300 301 303 304 306 307 309 311 312 311 309 308 307 306 303 299 294 290 288 285 278 271 261 254 250 246 243 240 237 235 233 230 229 227 225
299 299 300 301 303 305 306 307 310 315 318 319 319 319 319 317 315 311 307 304 298 295 292 284 277 267 259 252 247 243 240 236 233 231 229 228 226 224
299 300 302 304 306 307 308 310 314 318 321 325 329 330 329 326 322 318 314 310 305 302 298 289 281 274 265 254 248 244 240 236 232 229 227 225 223 221
301 303 305 307 308 309 311 314 318 323 327 332 335 336 334 331 328 325 320 315 308 303 298 291 283 275 266 256 248 243 238 233 229 226 223 221 220 218
304 306 308 310 311 314 319 324 329 334 339 343 344 342 339 336 335 332 329 324 318 310 302 294 284 275 265 258 248 241 235 231 225 221 218 215 214 213
305 307 310 314 320 329 340 347 350 352 353 353 350 347 345 343 342 341 339 339 337 332 323 309 296 281 266 255 247 238 232 226 221 215 212 209 207 207
305 308 315 326 348 11 15 10 6 4 1 358 356 354 354 354 356 358 0 2 3 2 356 347 333 311 280 255 245 233 223 216 212 207 204 201 199 198
308 317 344 36 54 41 28 20 14 9 7 5 5 5 7 9 12 16 20 23 26 25 22 19 15 7 332 273 239 220 210 205 201 197 193 191 190 190
331 54 83 79 60 42 32 25 21 19 18 16 16 19 19 20 24 29 32 34 35 35 34 33 31 31 32 49 143 184 188 187 184 181 180 180 181 180
94 97 90 71 53 42 35 31 32 31 29 26 26 26 26 28 33 36 38 40 40 39 40 42 42 43 48 57 84 128 153 164 167 168 169 171 173 173
105 96 80 62 53 45 41 44 43 41 39 35 33 31 32 35 41 42 42 44 45 44 44 47 52 58 61 67 87 108 129 146 153 156 159 163 166 168
103 88 70 62 58 51 51 53 52 52 47 42 37 36 38 42 46 47 48 49 50 51 53 57 61 65 69 76 90 103 116 130 139 146 151 155 160 164
95 81 69 62 60 58 62 63 61 58 51 45 40 40 44 47 50 52 53 53 54 57 60 62 65 70 76 83 93 101 108 115 125 134 143 149 155 161
88 76 66 63 64 68 73 72 68 61 54 47 44 45 49 52 55 56 58 59 61 63 65 66 69 73 78 85 94 101 107 112 118 123 131 140 147 154
81 71 64 63 69 76 79 78 71 64 56 50 48 50 54 57 60 63 65 67 68 69 71 72 74 77 80 84 91 98 105 112 118 123 128 134 140 147
74 67 65 66 75 82 82 81 75 67 59 54 53 54 56 60 63 67 70 72 74 74 74 76 78 80 84 87 91 96 101 107 114 121 127 132 138 144
Height
5705 5698 5692 5686 5679 5672 5665 5658 5653 5649 5645 5635 5624 5613 5604 5597 5590 5585 5581 5578 5576 5576 5576 5577 5579 5582 5585 5588 5593 5597 5603 5608 5614 5621 5627 5633 5640 5647
5688 5682 5675 5669 5662 5654 5647 5639 5631 5625 5621 5614 5602 5592 5583 5575 5568 5562 5558 5554 5553 5552 5552 5554 5556 5559 5563 5567 5572 5578 5584 5590 5597 5605 5612 5619 5627 5634
5672 5666 5659 5652 5645 5636 5628 5620 5611 5602 5597 5592 5580 5570 5561 5554 5548 5542 5538 5535 5534 5533 5533 5534 5536 5539 5542 5547 5552 5558 5565 5572 5579 5587 5595 5604 5612 5621
5656 5650 5642 5635 5627 5619 5611 5602 5592 5582 5574 5569 5561 5551 5543 5536 5531 5526 5522 5519 5518 5517 5517 5518 5520 5522 5525 5529 5534 5539 5546 5553 5561 5570 5579 5588 5597 5606
5640 5634 5626 5618 5611 5602 5593 5584 5575 5565 5556 5550 5544 5536 5529 5522 5517 5514 5510 5507 5506 5505 5505 5506 5507 5508 5511 5515 5519 5524 5530 5537 5544 5552 5561 5571 5581 5591
5624 5617 5610 5602 5594 5586 5578 5568 5559 5551 5543 5535 5529 5523 5517 5512 5507 5504 5501 5498 5497 5495 5495 5495 5496 5497 5500 5502 5506 5510 5515 5521 5528 5536 5544 5554 5564 5575
5609 5601 5594 5587 5579 5571 5563 5555 5547 5540 5533 5526 5519 5514 5509 5504 5501 5498 5495 5493 5490 5488 5487 5487 5487 5489 5490 5492 5494 5498 5503 5508 5514 5521 5529 5538 5548 5559
5594 5587 5580 5573 5566 5559 5551 5544 5537 5531 5525 5519 5514 5508 5504 5500 5496 5493 5490 5488 5485 5483 5481 5481 5480 5480 5481 5483 5485 5488 5492 5496 5502 5508 5515 5524 5533 5544
5581 5574 5568 5561 5555 5549 5543 5536 5531 5525 5520 5515 5511 5506 5502 5498 5494 5490 5487 5484 5481 5479 5477 5476 5474 5475 5475 5476 5477 5480 5483 5487 5491 5497 5503 5511 5520 5529
5568 5562 5557 5551 5546 5541 5536 5531 5527 5522 5518 5513 5509 5505 5500 5496 5492 5488 5485 5482 5478 5475 5473 5472 5470 5470 5469 5470 5471 5473 5475 5479 5482 5487 5493 5500 5508 5517
5557 5552 5548 5544 5540 5535 5532 5528 5524 5521 5517 5512 5508 5504 5499 5495 5491 5486 5483 5479 5476 5472 5470 5468 5467 5466 5466 5466 5467 5468 5470 5472 5476 5480 5485 5491 5498 5507
5548 5544 5541 5538 5535 5532 5529 5526 5523 5520 5516 5512 5508 5504 5499 5494 5489 5485 5480 5476 5473 5470 5467 5465 5464 5463 5463 5463 5464 5464 5466 5468 5471 5475 5479 5485 5491 5499
5543 5540 5537 5534 5532 5530 5527 5525 5523 5520 5516 5512 5508 5503 5498 5493 5488 5483 5478 5474 5471 5468 5465 5463 5462 5461 5461 5461 5461 5462 5463 5465 5468 5472 5476 5481 5487 5494
5539 5536 5534 5533 5531 5529 5528 5526 5523 5520 5517 5513 5508 5503 5498 5493 5487 5482 5478 5474 5470 5468 5465 5463 5461 5460 5459 5459 5459 5460 5461 5463 5466 5470 5474 5479 5485 5491
5536 5535 5533 5532 5531 5530 5528 5526 5524 5521 5517 5513 5509 5504 5499 5493 5488 5484 5479 5476 5472 5469 5466 5464 5462 5460 5459 5458 5458 5458 5460 5462 5465 5469 5473 5479 5484 5491
5535 5535 5534 5533 5533 5531 5529 5527 5525 5522 5519 5515 5511 5506 5501 5496 5491 5486 5483 5479 5475 5472 5469 5466 5463 5461 5459 5458 5458 5458 5459 5462 5465 5469 5474 5479 5485 5492
5536 5536 5536 5535 5534 5533 5531 5529 5527 5524 5521 5517 5513 5509 5504 5499 5494 5490 5486 5483 5479 5476 5473 5469 5466 5463 5461 5459 5459 5459 5460 5463 5466 5471 5476 5481 5487 5494
5538 5538 5537 5537 5536 5534 5533 5531 5529 5526 5524 5520 5517 5512 5508 5503 5499 5495 5491 5487 5484 5480 5477 5473 5470 5467 5465 5463 5462 5462 5463 5465 5469 5474 5479 5485 5491 5498
5540 5540 5539 5539 5538 5536 5535 5533 5531 5529 5527 5524 5521 5517 5512 5508 5504 5501 5497 5493 5489 5486 5482 5479 5475 5472 5470 5469 5468 5467 5468 5470 5474 5478 5483 5489 5496 5503
5542 5542 5542 5541 5540 5538 5537 5536 5534 5533 5531 5528 5525 5521 5517 5513 5510 5507 5503 5499 5496 5493 5489 5486 5482 5480 5478 5477 5476 5475 5475 5477 5481 5485 5490 5495 5501 5508
5545 5545 5544 5543 5542 5541 5540 5539 5538 5536 5535 5532 5529 5526 5522 5519 5516 5513 5510 5507 5503 5500 5497 5494 5491 5488 5486 5485 5485 5484 5484 5485 5488 5493 5497 5503 5509 5514
5548 5547 5546 5546 5545 5544 5543 5542 5541 5540 5539 5537 5534 5531 5528 5525 5522 5519 5517 5514 5511 5508 5506 5503 5501 5498 5496 5496 5495 5495 5495 5496 5497 5500 5504 5510 5515 5521
5551 5550 5549 5548 5548 5547 5547 5546 5545 5544 5543 5541 5539 5537 5534 5531 5528 5526 5523 5521 5519 5516 5514 5512 5510 5508 5507 5506 5506 5505 5505 5506 5508 5510 5513 5516 5520 5525